Location: Eaton
(41.3139°N, 82.0207°W)
Time: 00:57:56
(UTC+00:00)

Cosmos 921 Rocket - Pass Details

Date: 17 June 2021
Orbit: 571 x 632 km, 75.8° (Epoch: 02 August)

Event Time Altitude Azimuth Distance (km) Brightness Sun altitude
Exits shadow 07:24:20 50° 178° (S) 741 3.1 -20.0°
Maximum altitude 07:25:20 76° 105° (ESE) 600 2.9 -19.9°
Drops below altitude 10° 07:29:32 10° 20° (NNE) 1,890 6.7 -19.5°
Sets 07:31:44 0° 19° (NNE) 2,789 8.0 -19.3°
